Time,TemperatureF,DewpointF,PressureIn,WindDirection,WindDirectionDegrees,WindSpeedMPH,WindSpeedGustMPH,Humidity,HourlyPrecipIn,Conditions,Clouds,dailyrainin,SoftwareType,DateUTC
2013-03-24 00:02:00,6.0,3.0,-100.00,West,270,8.0,9.0,85,-99.99,,,0.00,,2013-03-24 06:02:00,
2013-03-24 00:12:00,5.0,1.0,-100.00,West,275,6.0,7.0,85,-99.99,,,0.00,,2013-03-24 06:12:00,
2013-03-24 00:22:00,5.0,1.0,-100.00,West,275,6.0,7.0,85,-99.99,,,0.00,,2013-03-24 06:22:00,
2013-03-24 00:32:00,4.0,1.0,-100.00,West,260,8.0,9.0,85,-99.99,,,0.00,,2013-03-24 06:32:00,
2013-03-24 00:42:00,4.0,1.0,-100.00,West,260,8.0,9.0,85,-99.99,,,0.00,,2013-03-24 06:42:00,
2013-03-24 00:52:00,4.0,1.0,-100.00,West,270,5.0,6.0,85,-99.99,,,0.00,,2013-03-24 06:52:00,
2013-03-24 01:02:00,4.0,1.0,-100.00,West,270,5.0,6.0,85,-99.99,,,0.00,,2013-03-24 07:02:00,
2013-03-24 01:12:00,5.0,1.0,-100.00,West,260,8.0,9.0,85,-99.99,,,0.00,,2013-03-24 07:12:00,
2013-03-24 01:22:00,5.0,1.0,-100.00,West,260,8.0,9.0,85,-99.99,,,0.00,,2013-03-24 07:22:00,
2013-03-24 01:32:00,5.0,1.0,-100.00,West,260,8.0,9.0,85,-99.99,,,0.00,,2013-03-24 07:32:00,
2013-03-24 01:42:00,5.0,1.0,-100.00,West,260,8.0,9.0,85,-99.99,,,0.00,,2013-03-24 07:42:00,
2013-03-24 01:52:00,4.0,1.0,-100.00,West,265,6.0,8.0,85,-99.99,,,0.00,,2013-03-24 07:52:00,
2013-03-24 02:01:00,4.0,1.0,-100.00,WSW,255,7.0,9.0,85,-99.99,,,0.00,,2013-03-24 08:01:00,
2013-03-24 02:03:00,4.0,1.0,-100.00,West,265,6.0,8.0,85,-99.99,,,0.00,,2013-03-24 08:03:00,
2013-03-24 02:12:00,5.0,1.0,-100.00,WSW,255,7.0,8.0,85,-99.99,,,0.00,,2013-03-24 08:12:00,
2013-03-24 02:22:00,5.0,1.0,-100.00,WSW,255,7.0,8.0,85,-99.99,,,0.00,,2013-03-24 08:22:00,
2013-03-24 02:32:00,4.0,1.0,-100.00,WSW,255,7.0,9.0,85,-99.99,,,0.00,,2013-03-24 08:32:00,
2013-03-24 02:42:00,4.0,1.0,-100.00,WSW,255,7.0,9.0,85,-99.99,,,0.00,,2013-03-24 08:42:00,
2013-03-24 02:52:00,4.0,1.0,-100.00,WSW,255,7.0,9.0,85,-99.99,,,0.00,,2013-03-24 08:52:00,
2013-03-24 03:12:00,5.0,2.0,-100.00,West,265,6.0,6.0,85,-99.99,,,0.00,,2013-03-24 09:12:00,
2013-03-24 03:22:00,5.0,2.0,-100.00,West,265,6.0,6.0,85,-99.99,,,0.00,,2013-03-24 09:22:00,
2013-03-24 03:33:00,5.0,2.0,-100.00,West,270,5.0,6.0,85,-99.99,,,0.00,,2013-03-24 09:33:00,
2013-03-24 03:42:00,5.0,2.0,-100.00,West,270,5.0,6.0,85,-99.99,,,0.00,,2013-03-24 09:42:00,
2013-03-24 03:52:00,5.0,2.0,-100.00,West,260,6.0,7.0,85,-99.99,,,0.00,,2013-03-24 09:52:00,
2013-03-24 04:03:00,5.0,2.0,-100.00,West,260,6.0,7.0,85,-99.99,,,0.00,,2013-03-24 10:03:00,
2013-03-24 04:12:00,5.0,2.0,-100.00,WSW,245,6.0,7.0,85,-99.99,,,0.00,,2013-03-24 10:12:00,
2013-03-24 04:22:00,5.0,2.0,-100.00,WSW,245,6.0,7.0,85,-99.99,,,0.00,,2013-03-24 10:22:00,
2013-03-24 04:33:00,5.0,2.0,-100.00,WSW,245,6.0,7.0,85,-99.99,,,0.00,,2013-03-24 10:33:00,
2013-03-24 04:42:00,5.0,2.0,-100.00,WSW,245,6.0,7.0,85,-99.99,,,0.00,,2013-03-24 10:42:00,
2013-03-24 04:52:00,5.0,1.0,-100.00,WSW,255,5.0,6.0,85,-99.99,,,0.00,,2013-03-24 10:52:00,
2013-03-24 05:03:00,5.0,1.0,-100.00,WSW,255,5.0,6.0,85,-99.99,,,0.00,,2013-03-24 11:03:00,
2013-03-24 05:12:00,6.0,2.0,-100.00,West,260,6.0,6.0,85,-99.99,,,0.00,,2013-03-24 11:12:00,
2013-03-24 05:22:00,6.0,2.0,-100.00,West,260,6.0,6.0,85,-99.99,,,0.00,,2013-03-24 11:22:00,
2013-03-24 05:33:00,5.0,2.0,-100.00,West,265,6.0,7.0,85,-99.99,,,0.00,,2013-03-24 11:33:00,
2013-03-24 05:42:00,5.0,2.0,-100.00,West,265,6.0,7.0,85,-99.99,,,0.00,,2013-03-24 11:42:00,
2013-03-24 05:52:00,5.0,2.0,-100.00,West,270,7.0,7.0,85,-99.99,,,0.00,,2013-03-24 11:52:00,
2013-03-24 06:02:00,5.0,2.0,-100.00,West,270,7.0,7.0,85,-99.99,,,0.00,,2013-03-24 12:02:00,
2013-03-24 06:12:00,5.0,2.0,-100.00,WSW,250,8.0,8.0,85,-99.99,,,0.01,,2013-03-24 12:12:00,
2013-03-24 06:22:00,5.0,2.0,-100.00,WSW,250,8.0,8.0,85,-99.99,,,0.01,,2013-03-24 12:22:00,
2013-03-24 06:32:00,5.0,2.0,-100.00,WSW,245,7.0,8.0,85,-99.99,,,0.01,,2013-03-24 12:32:00,
2013-03-24 06:42:00,5.0,2.0,-100.00,WSW,245,7.0,8.0,85,-99.99,,,0.01,,2013-03-24 12:42:00,
2013-03-24 06:52:00,6.0,2.0,-100.00,West,260,5.0,6.0,85,-99.99,,,0.01,,2013-03-24 12:52:00,
2013-03-24 07:02:00,6.0,2.0,-100.00,West,260,5.0,6.0,85,-99.99,,,0.01,,2013-03-24 13:02:00,
2013-03-24 07:12:00,6.0,3.0,-100.00,WSW,255,7.0,8.0,85,-99.99,,,0.01,,2013-03-24 13:12:00,
2013-03-24 07:22:00,6.0,3.0,-100.00,WSW,255,7.0,8.0,85,-99.99,,,0.01,,2013-03-24 13:22:00,
2013-03-24 07:32:00,6.0,2.0,-100.00,West,260,7.0,8.0,85,-99.99,,,0.01,,2013-03-24 13:32:00,
2013-03-24 07:42:00,6.0,2.0,-100.00,West,260,7.0,8.0,85,-99.99,,,0.01,,2013-03-24 13:42:00,
2013-03-24 07:52:00,6.0,2.0,-100.00,West,265,6.0,7.0,85,-99.99,,,0.01,,2013-03-24 13:52:00,
2013-03-24 08:02:00,6.0,2.0,-100.00,West,265,6.0,7.0,85,-99.99,,,0.01,,2013-03-24 14:02:00,
2013-03-24 08:12:00,7.0,3.0,-100.00,West,260,8.0,9.0,85,-99.99,,,0.01,,2013-03-24 14:12:00,
2013-03-24 08:22:00,7.0,3.0,-100.00,West,260,8.0,9.0,85,-99.99,,,0.01,,2013-03-24 14:22:00,
2013-03-24 08:32:00,7.0,3.0,-100.00,West,270,7.0,8.0,85,-99.99,,,0.01,,2013-03-24 14:32:00,
2013-03-24 08:42:00,7.0,3.0,-100.00,West,270,7.0,8.0,85,-99.99,,,0.01,,2013-03-24 14:42:00,
2013-03-24 08:52:00,8.0,4.0,-100.00,West,265,9.0,11.0,85,-99.99,,,0.01,,2013-03-24 14:52:00,
2013-03-24 09:02:00,8.0,4.0,-100.00,West,265,9.0,11.0,85,-99.99,,,0.01,,2013-03-24 15:02:00,
2013-03-24 09:12:00,9.0,5.0,-100.00,West,270,10.0,11.0,85,-99.99,,,0.01,,2013-03-24 15:12:00,
2013-03-24 09:22:00,9.0,5.0,-100.00,West,270,10.0,11.0,85,-99.99,,,0.01,,2013-03-24 15:22:00,
2013-03-24 09:33:00,9.0,6.0,-100.00,West,270,9.0,10.0,85,-99.99,,,0.01,,2013-03-24 15:33:00,
2013-03-24 09:43:00,9.0,6.0,-100.00,West,270,9.0,10.0,85,-99.99,,,0.01,,2013-03-24 15:43:00,
2013-03-24 09:53:00,10.0,6.0,-100.00,West,275,12.0,14.0,85,-99.99,,,0.01,,2013-03-24 15:53:00,
2013-03-24 10:03:00,10.0,6.0,-100.00,West,275,12.0,14.0,85,-99.99,,,0.01,,2013-03-24 16:03:00,
2013-03-24 10:12:00,11.0,7.0,-100.00,West,280,12.0,14.0,85,-99.99,,,0.01,,2013-03-24 16:12:00,
2013-03-24 10:23:00,11.0,7.0,-100.00,West,280,12.0,14.0,85,-99.99,,,0.01,,2013-03-24 16:23:00,
2013-03-24 10:33:00,11.0,8.0,-100.00,West,280,11.0,13.0,85,-99.99,,,0.01,,2013-03-24 16:33:00,
2013-03-24 10:42:00,11.0,8.0,-100.00,West,280,11.0,13.0,85,-99.99,,,0.01,,2013-03-24 16:42:00,
2013-03-24 10:52:00,12.0,8.0,-100.00,West,275,11.0,12.0,84,-99.99,,,0.01,,2013-03-24 16:52:00,
2013-03-24 11:02:00,12.0,8.0,-100.00,West,275,11.0,12.0,84,-99.99,,,0.01,,2013-03-24 17:02:00,
2013-03-24 11:12:00,12.0,8.0,-100.00,WNW,285,14.0,14.0,81,-99.99,,,0.01,,2013-03-24 17:12:00,
2013-03-24 11:23:00,12.0,8.0,-100.00,WNW,285,14.0,14.0,81,-99.99,,,0.01,,2013-03-24 17:23:00,
2013-03-24 11:33:00,14.0,9.0,-100.00,WNW,290,13.0,15.0,80,-99.99,,,0.01,,2013-03-24 17:33:00,
2013-03-24 11:42:00,14.0,9.0,-100.00,WNW,290,13.0,15.0,80,-99.99,,,0.01,,2013-03-24 17:42:00,
2013-03-24 11:52:00,14.0,9.0,-100.00,West,280,12.0,15.0,80,-99.99,,,0.01,,2013-03-24 17:52:00,
2013-03-24 12:03:00,14.0,9.0,-100.00,West,280,12.0,15.0,80,-99.99,,,0.01,,2013-03-24 18:03:00,
2013-03-24 12:12:00,14.0,9.0,-100.00,WNW,290,14.0,16.0,78,-99.99,,,0.01,,2013-03-24 18:12:00,
2013-03-24 12:22:00,14.0,9.0,-100.00,WNW,290,14.0,16.0,78,-99.99,,,0.01,,2013-03-24 18:22:00,
2013-03-24 12:32:00,15.0,9.0,-100.00,WNW,295,13.0,14.0,78,-99.99,,,0.01,,2013-03-24 18:32:00,
2013-03-24 12:43:00,15.0,9.0,-100.00,WNW,295,13.0,14.0,78,-99.99,,,0.01,,2013-03-24 18:43:00,
2013-03-24 12:52:00,16.0,10.0,-100.00,NW,305,14.0,15.0,78,-99.99,,,0.01,,2013-03-24 18:52:00,
2013-03-24 13:02:00,16.0,10.0,-100.00,NW,305,14.0,15.0,78,-99.99,,,0.01,,2013-03-24 19:02:00,
2013-03-24 13:12:00,16.0,10.0,-100.00,WNW,295,15.0,16.0,80,-99.99,,,0.01,,2013-03-24 19:12:00,
2013-03-24 13:22:00,16.0,10.0,-100.00,WNW,295,15.0,16.0,80,-99.99,,,0.01,,2013-03-24 19:22:00,
2013-03-24 13:32:00,16.0,11.0,-100.00,WNW,295,14.0,16.0,80,-99.99,,,0.00,,2013-03-24 19:32:00,
2013-03-24 13:42:00,16.0,11.0,-100.00,WNW,295,14.0,16.0,80,-99.99,,,0.00,,2013-03-24 19:42:00,
2013-03-24 13:52:00,17.0,12.0,-100.00,NW,315,13.0,14.0,80,-99.99,,,0.00,,2013-03-24 19:52:00,
2013-03-24 14:02:00,17.0,12.0,-100.00,NW,315,13.0,14.0,80,-99.99,,,0.00,,2013-03-24 20:02:00,
2013-03-24 14:12:00,17.0,12.0,-100.00,NW,310,14.0,16.0,81,-99.99,,,0.00,,2013-03-24 20:12:00,
2013-03-24 14:22:00,17.0,12.0,-100.00,NW,310,14.0,16.0,81,-99.99,,,0.00,,2013-03-24 20:22:00,
2013-03-24 14:32:00,18.0,13.0,-100.00,NW,310,12.0,14.0,81,-99.99,,,-99.99,,2013-03-24 20:32:00,
2013-03-24 14:42:00,18.0,13.0,-100.00,NW,310,12.0,14.0,81,-99.99,,,-99.99,,2013-03-24 20:42:00,
2013-03-24 14:52:00,17.0,13.0,-100.00,NW,310,15.0,16.0,82,-99.99,,,0.00,,2013-03-24 20:52:00,
2013-03-24 15:02:00,17.0,13.0,-100.00,NW,310,15.0,16.0,82,-99.99,,,0.00,,2013-03-24 21:02:00,
2013-03-24 15:12:00,18.0,13.0,-100.00,NW,305,16.0,17.0,81,-99.99,,,0.00,,2013-03-24 21:12:00,
2013-03-24 15:22:00,18.0,13.0,-100.00,NW,305,16.0,17.0,81,-99.99,,,0.00,,2013-03-24 21:22:00,
2013-03-24 15:33:00,18.0,13.0,-100.00,NW,305,17.0,19.0,81,-99.99,,,0.00,,2013-03-24 21:33:00,
2013-03-24 15:43:00,18.0,13.0,-100.00,NW,305,17.0,19.0,81,-99.99,,,0.00,,2013-03-24 21:43:00,
2013-03-24 15:52:00,19.0,13.0,-100.00,NW,310,17.0,19.0,80,-99.99,,,0.00,,2013-03-24 21:52:00,
2013-03-24 16:03:00,19.0,13.0,-100.00,NW,310,17.0,19.0,80,-99.99,,,0.00,,2013-03-24 22:03:00,
2013-03-24 16:13:00,18.0,13.0,-100.00,NW,315,12.0,13.0,79,-99.99,,,0.00,,2013-03-24 22:13:00,
2013-03-24 16:23:00,18.0,13.0,-100.00,NW,315,12.0,13.0,79,-99.99,,,0.00,,2013-03-24 22:23:00,
2013-03-24 16:33:00,18.0,12.0,-100.00,NW,315,14.0,16.0,78,-99.99,,,0.00,,2013-03-24 22:33:00,
2013-03-24 16:42:00,18.0,12.0,-100.00,NW,315,14.0,16.0,78,-99.99,,,0.00,,2013-03-24 22:42:00,
2013-03-24 16:52:00,18.0,12.0,-100.00,NW,320,14.0,16.0,78,-99.99,,,0.00,,2013-03-24 22:52:00,
2013-03-24 17:02:00,18.0,12.0,-100.00,NW,320,14.0,16.0,78,-99.99,,,0.00,,2013-03-24 23:02:00,
2013-03-24 17:12:00,18.0,13.0,-100.00,WNW,300,14.0,15.0,80,-99.99,,,0.00,,2013-03-24 23:12:00,
2013-03-24 17:22:00,18.0,13.0,-100.00,WNW,300,14.0,15.0,80,-99.99,,,0.00,,2013-03-24 23:22:00,
2013-03-24 17:32:00,17.0,12.0,-100.00,WNW,300,12.0,14.0,78,-99.99,,,0.00,,2013-03-24 23:32:00,
2013-03-24 17:42:00,17.0,12.0,-100.00,WNW,300,12.0,14.0,78,-99.99,,,0.00,,2013-03-24 23:42:00,
2013-03-24 17:52:00,17.0,12.0,-100.00,WNW,300,13.0,15.0,79,-99.99,,,0.00,,2013-03-24 23:52:00,
2013-03-24 18:02:00,17.0,12.0,-100.00,WNW,300,13.0,15.0,79,-99.99,,,0.00,,2013-03-25 00:02:00,
2013-03-24 18:12:00,16.0,11.0,-100.00,NW,310,12.0,12.0,81,-99.99,,,0.00,,2013-03-25 00:12:00,
2013-03-24 18:22:00,16.0,11.0,-100.00,NW,310,12.0,12.0,81,-99.99,,,0.00,,2013-03-25 00:22:00,
2013-03-24 18:32:00,16.0,11.0,-100.00,NW,310,12.0,12.0,81,-99.99,,,0.00,,2013-03-25 00:32:00,
2013-03-24 18:42:00,16.0,11.0,-100.00,NW,310,12.0,12.0,81,-99.99,,,0.00,,2013-03-25 00:42:00,
2013-03-24 18:52:00,15.0,11.0,-100.00,NW,310,11.0,12.0,83,-99.99,,,-99.99,,2013-03-25 00:52:00,
2013-03-24 19:02:00,15.0,11.0,-100.00,NW,310,11.0,12.0,83,-99.99,,,-99.99,,2013-03-25 01:02:00,
2013-03-24 19:12:00,14.0,9.0,-100.00,WNW,295,10.0,11.0,83,-99.99,,,-99.99,,2013-03-25 01:12:00,
2013-03-24 19:22:00,14.0,9.0,-100.00,WNW,295,10.0,11.0,83,-99.99,,,-99.99,,2013-03-25 01:22:00,
2013-03-24 19:32:00,13.0,9.0,-100.00,West,275,8.0,9.0,83,-99.99,,,-99.99,,2013-03-25 01:32:00,
2013-03-24 19:42:00,13.0,9.0,-100.00,West,275,8.0,9.0,83,-99.99,,,-99.99,,2013-03-25 01:42:00,
2013-03-24 19:52:00,11.0,7.0,-100.00,West,270,7.0,8.0,83,-99.99,,,-99.99,,2013-03-25 01:52:00,
2013-03-24 20:02:00,11.0,7.0,-100.00,West,270,7.0,8.0,83,-99.99,,,-99.99,,2013-03-25 02:02:00,
2013-03-24 20:12:00,10.0,7.0,-100.00,West,275,6.0,7.0,85,-99.99,,,-99.99,,2013-03-25 02:12:00,
2013-03-24 20:22:00,10.0,7.0,-100.00,West,275,6.0,7.0,85,-99.99,,,-99.99,,2013-03-25 02:22:00,
2013-03-24 20:33:00,9.0,6.0,-100.00,WNW,300,3.0,3.0,85,-99.99,,,-99.99,,2013-03-25 02:33:00,
2013-03-24 20:42:00,9.0,6.0,-100.00,WNW,300,3.0,3.0,85,-99.99,,,-99.99,,2013-03-25 02:42:00,
2013-03-24 20:52:00,9.0,6.0,-100.00,West,275,3.0,3.0,86,-99.99,,,-99.99,,2013-03-25 02:52:00,
2013-03-24 21:02:00,9.0,6.0,-100.00,West,275,3.0,3.0,86,-99.99,,,-99.99,,2013-03-25 03:02:00,
2013-03-24 21:13:00,10.0,7.0,-100.00,WNW,290,3.0,3.0,86,-99.99,,,-99.99,,2013-03-25 03:13:00,
2013-03-24 21:23:00,10.0,7.0,-100.00,WNW,290,3.0,3.0,86,-99.99,,,-99.99,,2013-03-25 03:23:00,
2013-03-24 21:33:00,10.0,7.0,-100.00,WNW,290,3.0,3.0,86,-99.99,,,-99.99,,2013-03-25 03:33:00,
2013-03-24 21:42:00,10.0,7.0,-100.00,WNW,290,3.0,3.0,86,-99.99,,,-99.99,,2013-03-25 03:42:00,
2013-03-24 21:52:00,9.0,6.0,-100.00,WSW,250,2.0,2.0,86,-99.99,,,-99.99,,2013-03-25 03:52:00,
2013-03-24 22:02:00,9.0,6.0,-100.00,WSW,250,2.0,2.0,86,-99.99,,,-99.99,,2013-03-25 04:02:00,
2013-03-24 22:12:00,9.0,6.0,-100.00,West,260,4.0,5.0,87,-99.99,,,-99.99,,2013-03-25 04:12:00,
2013-03-24 22:22:00,9.0,6.0,-100.00,West,260,4.0,5.0,87,-99.99,,,-99.99,,2013-03-25 04:22:00,
2013-03-24 22:33:00,9.0,6.0,-100.00,West,260,4.0,5.0,87,-99.99,,,-99.99,,2013-03-25 04:33:00,
2013-03-24 22:43:00,9.0,6.0,-100.00,West,260,4.0,5.0,87,-99.99,,,-99.99,,2013-03-25 04:43:00,
2013-03-24 22:52:00,10.0,7.0,-100.00,West,260,3.0,3.0,87,-99.99,,,-99.99,,2013-03-25 04:52:00,
2013-03-24 23:03:00,10.0,7.0,-100.00,West,260,3.0,3.0,87,-99.99,,,-99.99,,2013-03-25 05:03:00,
2013-03-24 23:12:00,10.0,7.0,-100.00,WSW,255,3.0,3.0,87,-99.99,,,-99.99,,2013-03-25 05:12:00,
2013-03-24 23:22:00,10.0,7.0,-100.00,WSW,255,3.0,3.0,87,-99.99,,,-99.99,,2013-03-25 05:22:00,
2013-03-24 23:32:00,10.0,7.0,-100.00,SW,220,1.0,2.0,87,-99.99,,,-99.99,,2013-03-25 05:32:00,
2013-03-24 23:42:00,10.0,7.0,-100.00,SW,220,1.0,2.0,87,-99.99,,,-99.99,,2013-03-25 05:42:00,
2013-03-24 23:52:00,9.0,6.0,-100.00,WNW,295,0.0,1.0,87,-99.99,,,-99.99,,2013-03-25 05:52:00,